Location: Dal�� Lhota
(48.7500°N, 14.0167°E)
Time: 22:08:42
(UTC+00:00)

OBJECT-B - Pass Details

Date: 24 September 2020
Orbit: 421 x 433 km, 97.0° (Epoch: 09 October)

Event Time Altitude Azimuth Distance (km) Brightness Sun altitude
Exits shadow 19:28:48 36° 309° (NW) 696 2.3 -24.8°
Drops below altitude 10° 19:31:04 10° 337° (NNW) 1,527 4.3 -25.2°
Sets 19:33:08 0° 343° (NNW) 2,401 5.3 -25.4°
